Time,TemperatureF,DewpointF,PressureIn,WindDirection,WindDirectionDegrees,WindSpeedMPH,WindSpeedGustMPH,Humidity,HourlyPrecipIn,Conditions,Clouds,dailyrainin,SoftwareType,DateUTC
2013-07-26 00:00:00,70.2,61.5,29.98,North,5,0.0,7.0,74,0.00,,,0.00,meteohub,2013-07-26 05:00:00,
2013-07-26 00:05:00,70.0,61.7,29.98,West,271,0.0,7.0,75,0.00,,,0.00,meteohub,2013-07-26 05:05:00,
2013-07-26 00:10:00,70.0,61.7,29.99,NW,317,0.0,5.0,75,0.00,,,0.00,meteohub,2013-07-26 05:10:00,
2013-07-26 00:16:00,70.0,61.7,29.99,WSW,255,0.0,4.0,75,0.00,,,0.00,meteohub,2013-07-26 05:16:00,
2013-07-26 00:21:00,70.0,61.7,29.99,WSW,254,0.0,4.0,75,0.00,,,0.00,meteohub,2013-07-26 05:21:00,
2013-07-26 00:26:00,69.8,61.5,29.99,WSW,244,1.0,3.0,75,0.00,,,0.00,meteohub,2013-07-26 05:26:00,
2013-07-26 00:31:00,69.6,61.7,29.99,WSW,256,0.0,4.0,76,0.00,,,0.00,meteohub,2013-07-26 05:31:00,
2013-07-26 00:36:00,69.4,61.9,29.99,WSW,255,0.0,4.0,77,0.00,,,0.00,meteohub,2013-07-26 05:36:00,
2013-07-26 00:42:00,69.1,61.5,29.99,WSW,248,0.0,3.0,77,0.00,,,0.00,meteohub,2013-07-26 05:42:00,
2013-07-26 00:47:00,68.7,61.5,29.99,WSW,246,0.0,1.0,78,0.00,,,0.00,meteohub,2013-07-26 05:47:00,
2013-07-26 00:52:00,68.5,61.3,29.99,SW,230,0.0,1.0,78,0.00,,,0.00,meteohub,2013-07-26 05:52:00,
2013-07-26 00:57:00,68.2,61.3,29.99,SW,230,0.0,1.0,79,0.00,,,0.00,meteohub,2013-07-26 05:57:00,
2013-07-26 01:02:00,68.2,61.3,29.99,SW,230,0.0,1.0,79,0.00,,,0.00,meteohub,2013-07-26 06:02:00,
2013-07-26 01:07:00,67.8,61.3,29.99,SW,230,0.0,0.0,80,0.00,,,0.00,meteohub,2013-07-26 06:07:00,
2013-07-26 01:13:00,67.6,61.2,29.99,SW,230,0.0,0.0,80,0.00,,,0.00,meteohub,2013-07-26 06:13:00,
2013-07-26 01:18:00,67.5,61.2,29.98,SW,230,0.0,0.0,80,0.00,,,0.00,meteohub,2013-07-26 06:18:00,
2013-07-26 01:23:00,67.3,61.2,29.98,SW,230,0.0,0.0,81,0.00,,,0.00,meteohub,2013-07-26 06:23:00,
2013-07-26 01:29:00,66.9,61.0,29.99,SW,230,0.0,0.0,81,0.00,,,0.00,meteohub,2013-07-26 06:29:00,
2013-07-26 01:34:00,66.7,61.0,29.99,SW,230,0.0,0.0,82,0.00,,,0.00,meteohub,2013-07-26 06:34:00,
2013-07-26 01:39:00,66.6,61.0,29.99,SW,230,0.0,0.0,82,0.00,,,0.00,meteohub,2013-07-26 06:39:00,
2013-07-26 01:44:00,66.4,60.8,29.99,SW,230,0.0,0.0,82,0.00,,,0.00,meteohub,2013-07-26 06:44:00,
2013-07-26 01:49:00,66.0,60.4,29.99,SW,230,0.0,0.0,82,0.00,,,0.00,meteohub,2013-07-26 06:49:00,
2013-07-26 01:54:00,66.0,60.6,29.99,SW,230,0.0,0.0,83,0.00,,,0.00,meteohub,2013-07-26 06:54:00,
2013-07-26 01:59:00,65.8,60.6,29.99,SW,230,0.0,0.0,83,0.00,,,0.00,meteohub,2013-07-26 06:59:00,
2013-07-26 02:04:00,65.8,60.6,29.99,SW,230,0.0,0.0,83,0.00,,,0.00,meteohub,2013-07-26 07:04:00,
2013-07-26 02:09:00,65.7,60.4,29.99,SW,230,0.0,0.0,83,0.00,,,0.00,meteohub,2013-07-26 07:09:00,
2013-07-26 02:15:00,65.7,60.6,29.99,SW,230,0.0,0.0,84,0.00,,,0.00,meteohub,2013-07-26 07:15:00,
2013-07-26 02:20:00,65.7,60.6,29.99,SW,230,0.0,0.0,84,0.00,,,0.00,meteohub,2013-07-26 07:20:00,
2013-07-26 02:25:00,65.5,60.4,29.99,SW,230,0.0,0.0,84,0.00,,,0.00,meteohub,2013-07-26 07:25:00,
2013-07-26 02:30:00,65.5,60.4,29.99,SW,230,0.0,0.0,84,0.00,,,0.00,meteohub,2013-07-26 07:30:00,
2013-07-26 02:35:00,65.7,61.0,29.99,SW,230,0.0,0.0,85,0.00,,,0.00,meteohub,2013-07-26 07:35:00,
2013-07-26 02:40:00,65.5,60.8,29.99,SW,230,0.0,0.0,85,0.00,,,0.00,meteohub,2013-07-26 07:40:00,
2013-07-26 02:46:00,65.5,60.4,29.99,SW,226,0.0,0.0,84,0.00,,,0.00,meteohub,2013-07-26 07:46:00,
2013-07-26 02:51:00,65.5,60.8,29.99,SW,226,0.0,1.0,85,0.00,,,0.00,meteohub,2013-07-26 07:51:00,
2013-07-26 02:56:00,65.5,60.8,29.98,SW,226,0.0,1.0,85,0.00,,,0.00,meteohub,2013-07-26 07:56:00,
2013-07-26 03:01:00,65.5,60.8,29.99,SW,226,0.0,1.0,85,0.00,,,0.00,meteohub,2013-07-26 08:01:00,
2013-07-26 03:06:00,65.3,60.6,29.98,SW,226,0.0,0.0,85,0.00,,,0.00,meteohub,2013-07-26 08:06:00,
2013-07-26 03:11:00,65.1,60.4,29.98,SW,226,0.0,0.0,85,0.00,,,0.00,meteohub,2013-07-26 08:11:00,
2013-07-26 03:17:00,65.1,60.4,29.98,SW,226,0.0,0.0,85,0.00,,,0.00,meteohub,2013-07-26 08:17:00,
2013-07-26 03:22:00,65.1,60.8,29.98,SW,226,0.0,0.0,86,0.00,,,0.00,meteohub,2013-07-26 08:22:00,
2013-07-26 03:27:00,65.1,60.4,29.98,SW,226,0.0,0.0,85,0.00,,,0.00,meteohub,2013-07-26 08:27:00,
2013-07-26 03:32:00,65.1,60.8,29.98,SW,226,0.0,0.0,86,0.00,,,0.00,meteohub,2013-07-26 08:32:00,
2013-07-26 03:37:00,64.9,60.6,29.97,SW,226,0.0,0.0,86,0.00,,,0.00,meteohub,2013-07-26 08:37:00,
2013-07-26 03:42:00,64.9,60.6,29.97,SW,226,0.0,0.0,86,0.00,,,0.00,meteohub,2013-07-26 08:42:00,
2013-07-26 03:47:00,64.9,60.6,29.97,SW,226,0.0,0.0,86,0.00,,,0.00,meteohub,2013-07-26 08:47:00,
2013-07-26 03:52:00,64.9,61.0,29.97,SW,226,0.0,0.0,87,0.00,,,0.00,meteohub,2013-07-26 08:52:00,
2013-07-26 03:57:00,64.8,60.4,29.97,SW,226,0.0,0.0,86,0.00,,,0.00,meteohub,2013-07-26 08:57:00,
2013-07-26 04:02:00,64.8,60.8,29.97,SW,226,0.0,0.0,87,0.00,,,0.00,meteohub,2013-07-26 09:02:00,
2013-07-26 04:07:00,64.8,60.8,29.97,SW,226,0.0,0.0,87,0.00,,,0.00,meteohub,2013-07-26 09:07:00,
2013-07-26 04:12:00,64.6,60.6,29.97,SW,226,0.0,0.0,87,0.00,,,0.00,meteohub,2013-07-26 09:12:00,
2013-07-26 04:17:00,64.6,60.6,29.97,SW,226,0.0,0.0,87,0.00,,,0.00,meteohub,2013-07-26 09:17:00,
2013-07-26 04:23:00,64.6,60.6,29.96,SW,226,0.0,1.0,87,0.00,,,0.00,meteohub,2013-07-26 09:23:00,
2013-07-26 04:28:00,64.6,60.6,29.97,SW,226,0.0,1.0,87,0.00,,,0.00,meteohub,2013-07-26 09:28:00,
2013-07-26 04:33:00,64.4,60.4,29.97,SW,226,0.0,1.0,87,0.00,,,0.00,meteohub,2013-07-26 09:33:00,
2013-07-26 04:38:00,64.4,60.4,29.97,SW,226,0.0,0.0,87,0.00,,,0.00,meteohub,2013-07-26 09:38:00,
2013-07-26 04:43:00,64.6,60.6,29.97,SW,226,0.0,0.0,87,0.00,,,0.00,meteohub,2013-07-26 09:43:00,
2013-07-26 04:48:00,64.6,60.6,29.98,SW,226,0.0,0.0,87,0.00,,,0.00,meteohub,2013-07-26 09:48:00,
2013-07-26 04:54:00,64.4,60.4,29.98,SW,226,0.0,0.0,87,0.00,,,0.00,meteohub,2013-07-26 09:54:00,
2013-07-26 04:59:00,64.2,59.9,29.98,SW,226,0.0,0.0,86,0.00,,,0.00,meteohub,2013-07-26 09:59:00,
2013-07-26 05:04:00,64.2,60.3,29.98,SW,226,0.0,0.0,87,0.00,,,0.00,meteohub,2013-07-26 10:04:00,
2013-07-26 05:09:00,64.2,60.3,29.98,SW,226,0.0,0.0,87,0.00,,,0.00,meteohub,2013-07-26 10:09:00,
2013-07-26 05:14:00,64.2,60.3,29.98,SW,226,0.0,0.0,87,0.00,,,0.00,meteohub,2013-07-26 10:14:00,
2013-07-26 05:19:00,64.2,60.3,29.98,SW,226,0.0,0.0,87,0.00,,,0.00,meteohub,2013-07-26 10:19:00,
2013-07-26 05:25:00,64.2,60.6,29.98,SW,226,0.0,0.0,88,0.00,,,0.00,meteohub,2013-07-26 10:25:00,
2013-07-26 05:30:00,64.0,60.4,29.98,SW,226,0.0,1.0,88,0.00,,,0.00,meteohub,2013-07-26 10:30:00,
2013-07-26 05:35:00,64.0,60.4,29.98,SW,226,0.0,0.0,88,0.00,,,0.00,meteohub,2013-07-26 10:35:00,
2013-07-26 05:40:00,64.0,60.4,29.98,SW,226,0.0,0.0,88,0.00,,,0.00,meteohub,2013-07-26 10:40:00,
2013-07-26 05:45:00,64.0,60.4,29.98,SW,226,0.0,0.0,88,0.00,,,0.00,meteohub,2013-07-26 10:45:00,
2013-07-26 05:51:00,64.0,60.4,29.98,SW,226,0.0,0.0,88,0.00,,,0.00,meteohub,2013-07-26 10:51:00,
2013-07-26 05:56:00,64.0,60.4,29.98,SW,226,0.0,0.0,88,0.00,,,0.00,meteohub,2013-07-26 10:56:00,
2013-07-26 06:01:00,64.0,60.4,29.98,SW,226,0.0,0.0,88,0.00,,,0.00,meteohub,2013-07-26 11:01:00,
2013-07-26 06:06:00,64.0,60.4,29.98,SW,226,0.0,0.0,88,0.00,,,0.00,meteohub,2013-07-26 11:06:00,
2013-07-26 06:11:00,63.9,60.3,29.98,SW,226,0.0,0.0,88,0.00,,,0.00,meteohub,2013-07-26 11:11:00,
2013-07-26 06:16:00,63.9,60.3,29.98,SW,226,0.0,0.0,88,0.00,,,0.00,meteohub,2013-07-26 11:16:00,
2013-07-26 06:21:00,64.0,60.8,29.98,SW,226,0.0,0.0,89,0.00,,,0.00,meteohub,2013-07-26 11:21:00,
2013-07-26 06:26:00,64.0,60.4,29.98,SW,226,0.0,0.0,88,0.00,,,0.00,meteohub,2013-07-26 11:26:00,
2013-07-26 06:32:00,64.4,60.8,29.98,SSW,205,0.0,1.0,88,0.00,,,0.00,meteohub,2013-07-26 11:32:00,
2013-07-26 06:37:00,64.8,61.2,29.98,South,169,0.0,5.0,88,0.00,,,0.00,meteohub,2013-07-26 11:37:00,
2013-07-26 06:42:00,65.1,61.5,29.98,SW,233,0.0,5.0,88,0.00,,,0.00,meteohub,2013-07-26 11:42:00,
2013-07-26 06:47:00,65.7,61.7,29.98,WSW,245,0.0,5.0,87,0.00,,,0.00,meteohub,2013-07-26 11:47:00,
2013-07-26 06:52:00,66.0,62.1,29.99,WSW,248,0.0,3.0,87,0.00,,,0.00,meteohub,2013-07-26 11:52:00,
2013-07-26 06:57:00,66.6,62.2,29.99,SW,219,0.0,2.0,86,0.00,,,0.00,meteohub,2013-07-26 11:57:00,
2013-07-26 07:02:00,66.7,62.4,29.99,SW,219,0.0,1.0,86,0.00,,,0.00,meteohub,2013-07-26 12:02:00,
2013-07-26 07:07:00,67.1,62.8,29.99,SW,228,0.0,1.0,86,0.00,,,0.00,meteohub,2013-07-26 12:07:00,
2013-07-26 07:13:00,67.5,62.8,29.99,West,270,0.0,4.0,85,0.00,,,0.00,meteohub,2013-07-26 12:13:00,
2013-07-26 07:18:00,67.6,63.0,29.99,NNW,334,5.0,5.0,85,0.00,,,0.00,meteohub,2013-07-26 12:18:00,
2013-07-26 07:23:00,67.6,63.0,29.99,WNW,297,1.0,5.0,85,0.00,,,0.00,meteohub,2013-07-26 12:23:00,
2013-07-26 07:28:00,67.8,63.5,29.99,WNW,295,0.0,5.0,86,0.00,,,0.00,meteohub,2013-07-26 12:28:00,
2013-07-26 07:33:00,67.8,63.5,29.99,South,182,0.0,5.0,86,0.00,,,0.00,meteohub,2013-07-26 12:33:00,
2013-07-26 07:39:00,68.2,63.9,29.99,NW,307,0.0,5.0,86,0.00,,,0.00,meteohub,2013-07-26 12:39:00,
2013-07-26 07:44:00,68.2,63.5,29.99,WNW,297,0.0,5.0,85,0.00,,,0.00,meteohub,2013-07-26 12:44:00,
2013-07-26 07:49:00,68.0,63.3,29.99,SSE,163,0.0,5.0,85,0.00,,,0.00,meteohub,2013-07-26 12:49:00,
2013-07-26 07:55:00,67.8,63.1,29.98,WNW,296,0.0,5.0,85,0.00,,,0.00,meteohub,2013-07-26 12:55:00,
2013-07-26 08:00:00,67.8,63.5,29.98,NNW,331,0.0,7.0,86,0.00,,,0.00,meteohub,2013-07-26 13:00:00,
2013-07-26 08:05:00,67.8,63.5,29.98,SSW,206,1.0,7.0,86,0.00,,,0.00,meteohub,2013-07-26 13:05:00,
2013-07-26 08:10:00,67.8,63.5,29.99,NW,317,0.0,7.0,86,0.00,,,0.00,meteohub,2013-07-26 13:10:00,
2013-07-26 08:15:00,68.0,63.7,29.99,WNW,296,0.0,6.0,86,0.00,,,0.00,meteohub,2013-07-26 13:15:00,
2013-07-26 08:20:00,68.2,63.9,29.99,NW,318,0.0,6.0,86,0.00,,,0.00,meteohub,2013-07-26 13:20:00,
2013-07-26 08:25:00,68.4,64.0,29.98,WSW,245,1.0,5.0,86,0.00,,,0.00,meteohub,2013-07-26 13:25:00,
2013-07-26 08:31:00,68.5,64.2,29.98,SW,232,1.0,5.0,86,0.00,,,0.00,meteohub,2013-07-26 13:31:00,
2013-07-26 08:36:00,68.7,64.0,29.98,East,91,0.0,2.0,85,0.00,,,0.00,meteohub,2013-07-26 13:36:00,
2013-07-26 08:41:00,68.9,64.2,29.98,West,266,0.0,6.0,85,0.00,,,0.00,meteohub,2013-07-26 13:41:00,
2013-07-26 08:46:00,69.1,64.4,29.98,West,259,0.0,8.0,85,0.00,,,0.00,meteohub,2013-07-26 13:46:00,
2013-07-26 08:52:00,68.9,64.6,29.98,NE,40,0.0,8.0,86,0.00,,,0.00,meteohub,2013-07-26 13:52:00,
2013-07-26 08:57:00,68.7,64.4,29.98,SE,140,0.0,8.0,86,0.00,,,0.00,meteohub,2013-07-26 13:57:00,
2013-07-26 09:02:00,68.5,64.2,29.97,NNW,342,0.0,5.0,86,0.00,,,0.00,meteohub,2013-07-26 14:02:00,
2013-07-26 09:07:00,68.4,64.4,29.97,NNE,28,0.0,4.0,87,0.00,,,0.00,meteohub,2013-07-26 14:07:00,
2013-07-26 09:12:00,68.4,64.4,29.97,SE,144,0.0,2.0,87,0.00,,,0.00,meteohub,2013-07-26 14:12:00,
2013-07-26 09:17:00,68.5,64.2,29.97,WNW,302,0.0,2.0,86,0.00,,,0.00,meteohub,2013-07-26 14:17:00,
2013-07-26 09:22:00,68.7,64.0,29.97,East,86,3.0,6.0,85,0.00,,,0.00,meteohub,2013-07-26 14:22:00,
2013-07-26 09:27:00,68.7,63.7,29.97,SE,131,0.0,6.0,84,0.00,,,0.00,meteohub,2013-07-26 14:27:00,
2013-07-26 09:33:00,68.7,64.0,29.97,SW,224,0.0,6.0,85,0.00,,,0.00,meteohub,2013-07-26 14:33:00,
2013-07-26 09:38:00,68.7,63.7,29.96,SW,224,4.0,6.0,84,0.00,,,0.00,meteohub,2013-07-26 14:38:00,
2013-07-26 09:43:00,68.9,63.9,29.96,NNW,329,0.0,6.0,84,0.00,,,0.00,meteohub,2013-07-26 14:43:00,
2013-07-26 09:48:00,69.1,64.0,29.96,SW,215,0.0,8.0,84,0.00,,,0.00,meteohub,2013-07-26 14:48:00,
2013-07-26 09:54:00,68.9,63.5,29.96,SE,146,1.0,8.0,83,0.00,,,0.00,meteohub,2013-07-26 14:54:00,
2013-07-26 09:59:00,68.7,63.3,29.96,South,174,0.0,8.0,83,0.00,,,0.00,meteohub,2013-07-26 14:59:00,
2013-07-26 10:04:00,68.5,63.5,29.96,SW,220,0.0,8.0,84,0.00,,,0.00,meteohub,2013-07-26 15:04:00,
2013-07-26 10:09:00,68.4,63.3,29.96,SW,228,0.0,8.0,84,0.00,,,0.00,meteohub,2013-07-26 15:09:00,
2013-07-26 10:14:00,68.2,63.1,29.96,SW,234,0.0,7.0,84,0.00,,,0.00,meteohub,2013-07-26 15:14:00,
2013-07-26 10:19:00,68.2,63.1,29.95,SW,217,2.0,6.0,84,0.00,,,0.00,meteohub,2013-07-26 15:19:00,
2013-07-26 10:24:00,68.0,63.0,29.96,WSW,257,6.0,6.0,84,0.00,,,0.00,meteohub,2013-07-26 15:24:00,
2013-07-26 10:29:00,67.8,63.5,29.95,SW,228,1.0,6.0,86,0.00,,,0.00,meteohub,2013-07-26 15:29:00,
2013-07-26 10:34:00,67.5,63.1,29.95,ENE,74,1.0,7.0,86,0.00,,,0.00,meteohub,2013-07-26 15:34:00,
2013-07-26 10:40:00,66.9,63.3,29.96,NE,47,0.0,7.0,88,0.00,,,0.01,meteohub,2013-07-26 15:40:00,
2013-07-26 10:45:00,66.6,63.1,29.96,West,264,0.0,5.0,89,0.01,,,0.01,meteohub,2013-07-26 15:45:00,
2013-07-26 10:50:00,66.0,63.0,29.95,East,90,0.0,4.0,90,0.03,,,0.03,meteohub,2013-07-26 15:50:00,
2013-07-26 10:55:00,65.7,63.0,29.95,SE,146,1.0,6.0,91,0.04,,,0.04,meteohub,2013-07-26 15:55:00,
2013-07-26 11:00:00,65.3,63.0,29.95,ENE,57,0.0,6.0,92,0.04,,,0.04,meteohub,2013-07-26 16:00:00,
2013-07-26 11:06:00,64.9,62.8,29.95,NNE,25,1.0,4.0,93,0.05,,,0.05,meteohub,2013-07-26 16:06:00,
2013-07-26 11:11:00,64.9,62.8,29.94,ENE,71,2.0,5.0,93,0.05,,,0.05,meteohub,2013-07-26 16:11:00,
2013-07-26 11:16:00,64.9,62.8,29.94,SE,142,0.0,5.0,93,0.05,,,0.05,meteohub,2013-07-26 16:16:00,
2013-07-26 11:21:00,64.8,62.6,29.94,North,355,0.0,6.0,93,0.05,,,0.05,meteohub,2013-07-26 16:21:00,
2013-07-26 11:26:00,64.8,62.6,29.94,NNE,14,0.0,13.0,93,0.05,,,0.05,meteohub,2013-07-26 16:26:00,
2013-07-26 11:31:00,64.6,62.4,29.94,SSE,164,0.0,13.0,93,0.05,,,0.05,meteohub,2013-07-26 16:31:00,
2013-07-26 11:37:00,64.6,62.8,29.94,North,0,0.0,13.0,94,0.05,,,0.05,meteohub,2013-07-26 16:37:00,
2013-07-26 11:42:00,64.6,62.8,29.94,North,5,0.0,5.0,94,0.04,,,0.05,meteohub,2013-07-26 16:42:00,
2013-07-26 11:47:00,64.6,62.8,29.94,NNW,333,0.0,5.0,94,0.03,,,0.05,meteohub,2013-07-26 16:47:00,
2013-07-26 11:52:00,64.6,62.4,29.94,NW,313,0.0,5.0,93,0.02,,,0.05,meteohub,2013-07-26 16:52:00,
2013-07-26 11:57:00,64.6,62.4,29.94,WNW,285,0.0,5.0,93,0.01,,,0.05,meteohub,2013-07-26 16:57:00,
2013-07-26 12:02:00,64.4,62.4,29.94,WNW,292,4.0,6.0,93,0.02,,,0.06,meteohub,2013-07-26 17:02:00,
2013-07-26 12:07:00,64.4,62.4,29.94,North,0,1.0,6.0,93,0.02,,,0.07,meteohub,2013-07-26 17:07:00,
2013-07-26 12:13:00,64.2,62.2,29.94,NE,56,1.0,7.0,93,0.02,,,0.07,meteohub,2013-07-26 17:13:00,
2013-07-26 12:18:00,64.2,62.4,29.94,East,96,0.0,7.0,94,0.03,,,0.08,meteohub,2013-07-26 17:18:00,
2013-07-26 12:23:00,64.2,62.4,29.93,SSE,155,0.0,6.0,94,0.04,,,0.09,meteohub,2013-07-26 17:23:00,
2013-07-26 12:28:00,64.2,62.4,29.93,NNE,17,0.0,5.0,94,0.07,,,0.12,meteohub,2013-07-26 17:28:00,
2013-07-26 12:33:00,64.2,62.4,29.93,SSW,201,0.0,4.0,94,0.07,,,0.12,meteohub,2013-07-26 17:33:00,
2013-07-26 12:38:00,64.2,62.4,29.93,WNW,284,2.0,6.0,94,0.07,,,0.12,meteohub,2013-07-26 17:38:00,
2013-07-26 12:43:00,64.2,62.4,29.93,SW,227,0.0,6.0,94,0.07,,,0.12,meteohub,2013-07-26 17:43:00,
2013-07-26 12:48:00,64.4,62.6,29.93,WSW,239,2.0,6.0,94,0.07,,,0.12,meteohub,2013-07-26 17:48:00,
2013-07-26 12:53:00,64.6,62.8,29.92,NE,40,0.0,4.0,94,0.07,,,0.12,meteohub,2013-07-26 17:53:00,
2013-07-26 12:59:00,64.8,63.3,29.92,WSW,244,0.0,5.0,95,0.07,,,0.13,meteohub,2013-07-26 17:59:00,
2013-07-26 13:04:00,64.8,63.3,29.92,SSW,211,0.0,5.0,95,0.07,,,0.13,meteohub,2013-07-26 18:04:00,
2013-07-26 13:09:00,65.1,63.7,29.92,North,349,0.0,5.0,95,0.06,,,0.13,meteohub,2013-07-26 18:09:00,
2013-07-26 13:14:00,65.3,63.9,29.91,SW,215,5.0,5.0,95,0.06,,,0.13,meteohub,2013-07-26 18:14:00,
2013-07-26 13:19:00,65.5,64.0,29.92,NNW,344,0.0,5.0,95,0.05,,,0.13,meteohub,2013-07-26 18:19:00,
2013-07-26 13:24:00,65.5,64.0,29.92,NNW,337,0.0,8.0,95,0.02,,,0.13,meteohub,2013-07-26 18:24:00,
2013-07-26 13:30:00,65.5,64.0,29.91,North,355,0.0,8.0,95,0.01,,,0.13,meteohub,2013-07-26 18:30:00,
2013-07-26 13:35:00,65.5,63.7,29.92,NE,47,0.0,12.0,94,0.01,,,0.13,meteohub,2013-07-26 18:35:00,
2013-07-26 13:40:00,65.5,63.7,29.92,West,259,0.0,12.0,94,0.01,,,0.13,meteohub,2013-07-26 18:40:00,
2013-07-26 13:45:00,65.5,63.7,29.92,NE,47,0.0,12.0,94,0.01,,,0.13,meteohub,2013-07-26 18:45:00,
2013-07-26 13:50:00,65.5,63.7,29.92,West,261,1.0,12.0,94,0.00,,,0.13,meteohub,2013-07-26 18:50:00,
2013-07-26 13:56:00,65.5,63.7,29.92,WNW,292,1.0,12.0,94,0.00,,,0.13,meteohub,2013-07-26 18:56:00,
2013-07-26 14:01:00,65.5,63.7,29.92,WNW,300,0.0,10.0,94,0.00,,,0.13,meteohub,2013-07-26 19:01:00,
2013-07-26 14:06:00,65.5,63.7,29.91,NNW,330,0.0,10.0,94,0.00,,,0.13,meteohub,2013-07-26 19:06:00,
2013-07-26 14:11:00,65.5,63.7,29.91,WSW,246,0.0,7.0,94,0.00,,,0.13,meteohub,2013-07-26 19:11:00,
2013-07-26 14:16:00,65.5,63.7,29.91,WSW,248,0.0,7.0,94,0.00,,,0.13,meteohub,2013-07-26 19:16:00,
2013-07-26 14:21:00,65.5,64.0,29.90,WSW,253,0.0,5.0,95,0.00,,,0.13,meteohub,2013-07-26 19:21:00,
2013-07-26 14:27:00,66.0,64.6,29.90,NNW,329,0.0,7.0,95,0.00,,,0.13,meteohub,2013-07-26 19:27:00,
2013-07-26 14:32:00,66.2,64.8,29.90,West,269,1.0,7.0,95,0.00,,,0.13,meteohub,2013-07-26 19:32:00,
2013-07-26 14:37:00,66.6,65.1,29.89,WSW,248,2.0,7.0,95,0.00,,,0.13,meteohub,2013-07-26 19:37:00,
2013-07-26 14:42:00,66.7,65.3,29.89,West,277,0.0,7.0,95,0.00,,,0.13,meteohub,2013-07-26 19:42:00,
2013-07-26 14:47:00,66.9,65.5,29.89,West,274,0.0,7.0,95,0.00,,,0.13,meteohub,2013-07-26 19:47:00,
2013-07-26 14:52:00,67.3,65.5,29.88,North,349,1.0,7.0,94,0.00,,,0.13,meteohub,2013-07-26 19:52:00,
2013-07-26 14:57:00,67.3,65.5,29.88,West,277,0.0,7.0,94,0.00,,,0.13,meteohub,2013-07-26 19:57:00,
2013-07-26 15:02:00,67.5,65.3,29.88,NNE,17,0.0,7.0,93,0.00,,,0.13,meteohub,2013-07-26 20:02:00,
2013-07-26 15:07:00,67.5,65.3,29.89,SW,217,6.0,7.0,93,0.00,,,0.13,meteohub,2013-07-26 20:07:00,
2013-07-26 15:12:00,67.3,65.1,29.89,West,273,0.0,8.0,93,0.00,,,0.13,meteohub,2013-07-26 20:12:00,
2013-07-26 15:17:00,67.3,65.1,29.88,NNW,329,0.0,8.0,93,0.00,,,0.13,meteohub,2013-07-26 20:17:00,
2013-07-26 15:22:00,67.3,65.1,29.89,SW,226,1.0,8.0,93,0.00,,,0.13,meteohub,2013-07-26 20:22:00,
2013-07-26 15:27:00,67.5,65.3,29.88,NNW,339,0.0,7.0,93,0.00,,,0.13,meteohub,2013-07-26 20:27:00,
2013-07-26 15:33:00,67.6,65.5,29.87,ESE,103,0.0,7.0,93,0.00,,,0.13,meteohub,2013-07-26 20:33:00,
2013-07-26 15:38:00,67.6,65.5,29.87,WSW,244,0.0,7.0,93,0.00,,,0.13,meteohub,2013-07-26 20:38:00,
2013-07-26 15:43:00,67.6,65.5,29.87,SE,138,0.0,7.0,93,0.00,,,0.13,meteohub,2013-07-26 20:43:00,
2013-07-26 15:48:00,67.8,65.5,29.88,West,277,0.0,5.0,92,0.00,,,0.13,meteohub,2013-07-26 20:48:00,
2013-07-26 15:53:00,67.8,65.7,29.87,SE,134,0.0,7.0,93,0.00,,,0.13,meteohub,2013-07-26 20:53:00,
2013-07-26 15:58:00,67.8,65.7,29.88,North,351,0.0,7.0,93,0.00,,,0.13,meteohub,2013-07-26 20:58:00,
2013-07-26 16:03:00,67.8,65.5,29.88,East,101,0.0,7.0,92,0.00,,,0.13,meteohub,2013-07-26 21:03:00,
2013-07-26 16:08:00,67.8,65.7,29.88,NNE,22,0.0,5.0,93,0.00,,,0.13,meteohub,2013-07-26 21:08:00,
2013-07-26 16:14:00,67.8,65.7,29.89,SSW,200,0.0,6.0,93,0.00,,,0.13,meteohub,2013-07-26 21:14:00,
2013-07-26 16:19:00,67.6,65.5,29.89,SE,130,0.0,6.0,93,0.00,,,0.13,meteohub,2013-07-26 21:19:00,
2013-07-26 16:24:00,67.6,65.5,29.89,West,272,0.0,6.0,93,0.00,,,0.13,meteohub,2013-07-26 21:24:00,
2013-07-26 16:29:00,67.6,65.5,29.88,West,271,0.0,3.0,93,0.00,,,0.13,meteohub,2013-07-26 21:29:00,
2013-07-26 16:34:00,67.5,65.3,29.88,NNW,336,0.0,3.0,93,0.00,,,0.13,meteohub,2013-07-26 21:34:00,
2013-07-26 16:40:00,67.5,65.3,29.89,North,5,2.0,3.0,93,0.00,,,0.13,meteohub,2013-07-26 21:40:00,
2013-07-26 16:45:00,67.3,65.5,29.88,WNW,296,0.0,3.0,94,0.00,,,0.13,meteohub,2013-07-26 21:45:00,
2013-07-26 16:50:00,67.3,65.5,29.88,NW,317,1.0,2.0,94,0.00,,,0.13,meteohub,2013-07-26 21:50:00,
2013-07-26 16:55:00,67.3,65.5,29.87,NE,39,0.0,2.0,94,0.00,,,0.13,meteohub,2013-07-26 21:55:00,
2013-07-26 17:00:00,67.3,65.5,29.87,NE,40,0.0,2.0,94,0.00,,,0.13,meteohub,2013-07-26 22:00:00,
2013-07-26 17:05:00,67.3,65.5,29.86,ESE,107,1.0,2.0,94,0.01,,,0.14,meteohub,2013-07-26 22:05:00,
2013-07-26 17:10:00,67.5,65.7,29.87,SSE,150,0.0,2.0,94,0.01,,,0.14,meteohub,2013-07-26 22:10:00,
2013-07-26 17:15:00,67.8,66.4,29.88,East,88,1.0,2.0,95,0.01,,,0.14,meteohub,2013-07-26 22:15:00,
2013-07-26 17:20:00,68.4,66.9,29.88,ENE,63,0.0,2.0,95,0.01,,,0.14,meteohub,2013-07-26 22:20:00,
2013-07-26 17:26:00,68.5,66.7,29.89,NNW,342,0.0,2.0,94,0.01,,,0.14,meteohub,2013-07-26 22:26:00,
2013-07-26 17:31:00,68.5,66.4,29.88,SSW,194,0.0,3.0,93,0.01,,,0.14,meteohub,2013-07-26 22:31:00,
2013-07-26 17:36:00,68.5,66.4,29.88,NW,312,0.0,5.0,93,0.01,,,0.14,meteohub,2013-07-26 22:36:00,
2013-07-26 17:41:00,68.7,66.6,29.89,NW,312,0.0,5.0,93,0.01,,,0.14,meteohub,2013-07-26 22:41:00,
2013-07-26 17:46:00,69.1,66.9,29.88,WNW,300,0.0,7.0,93,0.01,,,0.14,meteohub,2013-07-26 22:46:00,
2013-07-26 17:51:00,69.4,66.7,29.88,WNW,294,0.0,7.0,91,0.01,,,0.14,meteohub,2013-07-26 22:51:00,
2013-07-26 17:57:00,69.6,66.6,29.87,WNW,284,0.0,7.0,90,0.01,,,0.14,meteohub,2013-07-26 22:57:00,
2013-07-26 18:02:00,69.8,65.1,29.86,West,278,0.0,6.0,85,0.00,,,0.14,meteohub,2013-07-26 23:02:00,
2013-07-26 18:07:00,70.0,64.6,29.86,West,275,1.0,7.0,83,0.00,,,0.14,meteohub,2013-07-26 23:07:00,
2013-07-26 18:12:00,69.6,63.5,29.87,WSW,253,4.0,9.0,81,0.00,,,0.14,meteohub,2013-07-26 23:12:00,
2013-07-26 18:14:00,69.6,63.5,29.87,NW,314,5.0,9.0,81,0.00,,,0.14,meteohub,2013-07-26 23:14:00,
2013-07-26 18:19:00,69.4,63.3,29.87,NNW,327,2.0,9.0,81,0.00,,,0.14,meteohub,2013-07-26 23:19:00,
2013-07-26 18:25:00,69.4,63.7,29.87,NW,311,3.0,8.0,82,0.00,,,0.14,meteohub,2013-07-26 23:25:00,
2013-07-26 18:30:00,69.3,63.5,29.87,West,274,5.0,9.0,82,0.00,,,0.14,meteohub,2013-07-26 23:30:00,
2013-07-26 18:35:00,69.3,63.9,29.87,WNW,303,0.0,9.0,83,0.00,,,0.14,meteohub,2013-07-26 23:35:00,
2013-07-26 18:40:00,69.3,63.5,29.88,West,271,0.0,7.0,82,0.00,,,0.14,meteohub,2013-07-26 23:40:00,
2013-07-26 18:45:00,69.1,63.7,29.88,West,279,1.0,7.0,83,0.00,,,0.14,meteohub,2013-07-26 23:45:00,
2013-07-26 18:50:00,68.7,63.3,29.88,NW,319,1.0,7.0,83,0.00,,,0.14,meteohub,2013-07-26 23:50:00,
2013-07-26 18:55:00,68.5,63.1,29.88,NW,317,0.0,5.0,83,0.00,,,0.14,meteohub,2013-07-26 23:55:00,
2013-07-26 19:01:00,68.2,63.1,29.89,NW,317,0.0,5.0,84,0.00,,,0.14,meteohub,2013-07-27 00:01:00,
2013-07-26 19:06:00,68.2,63.1,29.89,NW,317,1.0,5.0,84,0.00,,,0.00,meteohub,2013-07-27 00:06:00,
2013-07-26 19:12:00,68.2,63.1,29.89,WNW,296,1.0,2.0,84,0.00,,,0.00,meteohub,2013-07-27 00:12:00,
2013-07-26 19:17:00,68.0,63.7,29.89,WNW,296,0.0,4.0,86,0.00,,,0.00,meteohub,2013-07-27 00:17:00,
2013-07-26 19:22:00,68.2,63.9,29.89,WNW,296,0.0,4.0,86,0.00,,,0.00,meteohub,2013-07-27 00:22:00,
2013-07-26 19:27:00,68.4,64.6,29.89,WNW,296,0.0,4.0,88,0.00,,,0.00,meteohub,2013-07-27 00:27:00,
2013-07-26 19:32:00,68.2,64.2,29.89,WNW,296,0.0,0.0,87,0.00,,,0.00,meteohub,2013-07-27 00:32:00,
2013-07-26 19:37:00,68.2,64.2,29.89,WNW,296,0.0,1.0,87,0.00,,,0.00,meteohub,2013-07-27 00:37:00,
2013-07-26 19:42:00,67.8,63.9,29.88,WNW,296,0.0,1.0,87,0.00,,,0.00,meteohub,2013-07-27 00:42:00,
2013-07-26 19:47:00,67.6,63.7,29.88,WNW,296,0.0,1.0,87,0.00,,,0.00,meteohub,2013-07-27 00:47:00,
2013-07-26 19:53:00,67.3,63.7,29.88,WNW,296,0.0,0.0,88,0.00,,,0.00,meteohub,2013-07-27 00:53:00,
2013-07-26 19:58:00,66.9,63.3,29.88,WNW,295,0.0,0.0,88,0.00,,,0.00,meteohub,2013-07-27 00:58:00,
2013-07-26 20:03:00,66.6,63.1,29.88,WNW,296,0.0,1.0,89,0.00,,,0.00,meteohub,2013-07-27 01:03:00,
2013-07-26 20:08:00,66.4,63.0,29.88,WNW,295,0.0,1.0,89,0.00,,,0.00,meteohub,2013-07-27 01:08:00,
2013-07-26 20:13:00,66.0,63.0,29.88,WNW,295,0.0,1.0,90,0.00,,,0.00,meteohub,2013-07-27 01:13:00,
2013-07-26 20:18:00,65.8,62.8,29.88,WNW,295,0.0,0.0,90,0.00,,,0.00,meteohub,2013-07-27 01:18:00,
2013-07-26 20:24:00,65.5,62.4,29.89,WNW,295,0.0,0.0,90,0.00,,,0.00,meteohub,2013-07-27 01:24:00,
2013-07-26 20:29:00,65.1,62.4,29.89,WNW,295,0.0,0.0,91,0.00,,,0.00,meteohub,2013-07-27 01:29:00,
2013-07-26 20:34:00,64.8,62.4,29.89,WNW,296,0.0,0.0,92,0.00,,,0.00,meteohub,2013-07-27 01:34:00,
2013-07-26 20:39:00,64.6,62.2,29.89,WNW,295,0.0,0.0,92,0.00,,,0.00,meteohub,2013-07-27 01:39:00,
2013-07-26 20:44:00,64.4,62.4,29.89,WNW,295,0.0,0.0,93,0.00,,,0.00,meteohub,2013-07-27 01:44:00,
2013-07-26 20:49:00,64.4,62.4,29.89,WNW,295,0.0,0.0,93,0.00,,,0.00,meteohub,2013-07-27 01:49:00,
2013-07-26 20:54:00,64.2,62.2,29.89,WNW,295,0.0,1.0,93,0.00,,,0.00,meteohub,2013-07-27 01:54:00,
2013-07-26 21:00:00,64.2,62.2,29.90,WNW,295,0.0,1.0,93,0.00,,,0.00,meteohub,2013-07-27 02:00:00,
2013-07-26 21:05:00,64.2,62.2,29.90,WNW,295,0.0,1.0,93,0.00,,,0.00,meteohub,2013-07-27 02:05:00,
2013-07-26 21:10:00,64.0,62.1,29.90,WNW,295,0.0,1.0,93,0.00,,,0.00,meteohub,2013-07-27 02:10:00,
2013-07-26 21:15:00,64.0,62.2,29.90,WNW,295,0.0,1.0,94,0.00,,,0.00,meteohub,2013-07-27 02:15:00,
2013-07-26 21:20:00,64.0,62.2,29.90,WNW,295,0.0,1.0,94,0.00,,,0.00,meteohub,2013-07-27 02:20:00,
2013-07-26 21:25:00,64.0,62.2,29.90,WNW,295,0.0,0.0,94,0.00,,,0.00,meteohub,2013-07-27 02:25:00,
2013-07-26 21:30:00,63.9,62.1,29.90,WNW,295,0.0,0.0,94,0.00,,,0.00,meteohub,2013-07-27 02:30:00,
2013-07-26 21:35:00,63.7,61.9,29.90,WNW,295,0.0,0.0,94,0.00,,,0.00,meteohub,2013-07-27 02:35:00,
2013-07-26 21:41:00,63.7,61.9,29.90,WNW,295,0.0,0.0,94,0.00,,,0.00,meteohub,2013-07-27 02:41:00,
2013-07-26 21:46:00,63.7,61.9,29.90,WNW,295,0.0,0.0,94,0.00,,,0.00,meteohub,2013-07-27 02:46:00,
2013-07-26 21:51:00,63.3,61.5,29.90,WNW,295,0.0,0.0,94,0.00,,,0.00,meteohub,2013-07-27 02:51:00,
2013-07-26 21:56:00,63.1,61.3,29.90,WNW,295,0.0,0.0,94,0.00,,,0.00,meteohub,2013-07-27 02:56:00,
2013-07-26 22:01:00,63.1,61.3,29.90,WNW,295,0.0,0.0,94,0.00,,,0.00,meteohub,2013-07-27 03:01:00,
2013-07-26 22:07:00,63.0,61.2,29.90,WNW,295,0.0,0.0,94,0.00,,,0.00,meteohub,2013-07-27 03:07:00,
2013-07-26 22:12:00,62.8,61.0,29.90,WNW,295,0.0,0.0,94,0.00,,,0.00,meteohub,2013-07-27 03:12:00,
2013-07-26 22:17:00,63.1,61.3,29.90,NNW,327,1.0,0.0,94,0.00,,,0.00,meteohub,2013-07-27 03:17:00,
2013-07-26 22:22:00,63.7,61.3,29.90,NNW,327,1.0,4.0,92,0.00,,,0.00,meteohub,2013-07-27 03:22:00,
2013-07-26 22:27:00,63.9,61.2,29.90,NNW,327,0.0,4.0,91,0.00,,,0.00,meteohub,2013-07-27 03:27:00,
2013-07-26 22:32:00,64.0,61.0,29.90,NNW,327,0.0,2.0,90,0.00,,,0.00,meteohub,2013-07-27 03:32:00,
2013-07-26 22:37:00,64.2,61.2,29.90,NW,308,1.0,2.0,90,0.00,,,0.00,meteohub,2013-07-27 03:37:00,
2013-07-26 22:42:00,64.6,60.6,29.90,NW,306,1.0,4.0,87,0.00,,,0.00,meteohub,2013-07-27 03:42:00,
2013-07-26 22:47:00,64.8,60.4,29.89,NW,311,1.0,5.0,86,0.00,,,0.00,meteohub,2013-07-27 03:47:00,
2013-07-26 22:52:00,64.8,60.1,29.89,NW,315,0.0,5.0,85,0.00,,,0.00,meteohub,2013-07-27 03:52:00,
2013-07-26 22:57:00,64.6,59.9,29.89,NW,315,0.0,5.0,85,0.00,,,0.00,meteohub,2013-07-27 03:57:00,
2013-07-26 23:01:00,64.4,59.5,29.89,NW,315,0.0,5.0,84,0.00,,,0.00,meteohub,2013-07-27 04:01:00,
2013-07-26 23:02:00,64.4,59.7,29.89,NW,315,0.0,5.0,85,0.00,,,0.00,meteohub,2013-07-27 04:02:00,
2013-07-26 23:03:00,64.2,59.5,29.89,NW,319,0.0,5.0,85,0.00,,,0.00,meteohub,2013-07-27 04:03:00,
2013-07-26 23:06:00,64.2,59.5,29.89,NW,319,0.0,4.0,85,0.00,,,0.00,meteohub,2013-07-27 04:06:00,
2013-07-26 23:11:00,64.0,59.4,29.89,NW,319,0.0,2.0,85,0.00,,,0.00,meteohub,2013-07-27 04:11:00,
2013-07-26 23:17:00,63.7,59.0,29.89,NW,319,0.0,1.0,85,0.00,,,0.00,meteohub,2013-07-27 04:17:00,
2013-07-26 23:22:00,63.1,58.8,29.89,NW,319,0.0,1.0,86,0.00,,,0.00,meteohub,2013-07-27 04:22:00,
2013-07-26 23:27:00,62.8,58.8,29.89,NW,319,0.0,1.0,87,0.00,,,0.00,meteohub,2013-07-27 04:27:00,
2013-07-26 23:32:00,62.2,59.0,29.89,NW,319,0.0,0.0,89,0.00,,,0.00,meteohub,2013-07-27 04:32:00,
2013-07-26 23:37:00,61.7,58.8,29.89,NW,319,0.0,0.0,90,0.00,,,0.00,meteohub,2013-07-27 04:37:00,
2013-07-26 23:42:00,61.3,58.5,29.90,NW,319,0.0,0.0,90,0.00,,,0.00,meteohub,2013-07-27 04:42:00,
2013-07-26 23:47:00,61.0,58.3,29.90,NW,319,0.0,0.0,91,0.00,,,0.00,meteohub,2013-07-27 04:47:00,
2013-07-26 23:52:00,60.6,57.9,29.90,NW,319,0.0,0.0,91,0.00,,,0.00,meteohub,2013-07-27 04:52:00,
2013-07-26 23:57:00,60.3,57.9,29.89,NW,319,0.0,2.0,92,0.00,,,0.00,meteohub,2013-07-27 04:57:00,